Погода в Сорокополье

Россия / Вологодская область     61°15′32″N   36°33′11″E
темп.,
°C
ветер,
м/с
пор.,
м/с
влажн.,
%
обл.,
%
осадки,
мм/ч
давл.,
гПа
погр.,
м
6 марта, сб
сб600:00−17ссз119821 0.0 101320
03:00−17юз1110017 0.0 101420
06:00−15юз229799 0.1 101322
09:00−14юз349799 0.1 101298
12:00−12юз359594 0.0 1011221
15:00−9ююз369176 0.1 1008221
18:00−9ю489166 0.0 1005163
21:00−8ю7148682 0.0 1000429
7 марта, вс
вс700:00−7ююв81592100 0.5 994726
03:00−6ююв81593100 1.8 989797
06:00−6ююв71492100 1.9 986677
09:00−5ю3596100 3.4 986349
12:00−5ссз3495100 2.0 987317
15:00−5в5991100 3.5 988630
18:00−7св51090100 0.3 990517
21:00−8св51288100 0.5 994601
8 марта, пн
пн800:00−10ссв51186100 0.1 997357
03:00−13ссв51089100 0.1 1000270
06:00−16ссв599194 0.0 1003219
09:00−18с489279 0.0 1007220
12:00−16с469259 0.0 1009421
15:00−14ссз579179 0.1 1011542
18:00−17ссз4693100 0.0 1013135
21:00−22с349660 0.0 101542
9 марта, вт
вт900:00−26с23960 0.0 101721
03:00−28ссв23960 0.0 101820
06:00−29ссв23960 0.0 101920
09:00−28с11930 0.0 102129
12:00−24зсз22936 0.0 1021192
15:00−23з229523 0.0 1021138
18:00−25ссз119320 0.0 102120
21:00−25с119410 0.0 102320
10 марта, ср
ср1000:00−26всв11970 0.0 102420
03:00−26вюв11980 0.0 102519
06:00−27ю11980 0.0 102519
09:00−24ю119514 0.0 102524
12:00−20з119298 0.0 1025154
15:00−18з118895 0.0 1024108
18:00−21юз018367 0.0 102320
21:00−21юв127635 0.0 102420